Location: Freistadt
(48.5112°N, 14.5013°E)
Time: 09:22:53
(UTC+02:00)

MOZHAYETS 4 - Pass Details

Date: 04 April 2023
Orbit: 657 x 675 km, 98.2° (Epoch: 03 June)

Event Time Altitude Azimuth Distance (km) Brightness Sun altitude
Exits shadow 04:49:09 18° 290° (WNW) 1,595 9.3 -17.2°
Drops below altitude 10° 04:51:18 10° 317° (NW) 2,089 10.1 -16.9°
Sets 04:54:04 0° 334° (NNW) 3,010 11.1 -16.5°
